Date,TemperatureHighF,TemperatureAvgF,TemperatureLowF,DewpointHighF,DewpointAvgF,DewpointLowF,HumidityHigh,HumidityAvg,HumidityLow,PressureMaxIn,PressureMinIn,WindSpeedMaxMPH,WindSpeedAvgMPH,GustSpeedMaxMPH,PrecipitationSumIn
2013-2-1,65.9,54.9,45.0,46.2,40.1,33.8,80,59,32,30.34,30.19,13,0,14,0.00
2013-2-2,71.0,57.4,47.3,49.7,44.6,35.9,81,64,28,30.28,30.13,10,0,11,0.00
2013-2-3,68.5,56.5,46.1,57.2,49.6,42.6,92,78,62,30.17,30.07,11,0,12,0.00
2013-2-4,69.5,55.6,47.0,54.2,45.4,35.6,91,72,29,30.11,30.02,9,0,11,0.01
2013-2-5,74.5,60.6,48.3,58.5,51.7,44.0,87,74,47,30.06,29.97,10,0,10,0.00
2013-2-6,77.0,67.4,60.1,65.1,60.1,55.6,88,78,56,30.07,29.98,12,0,14,0.00
2013-2-7,77.0,68.6,63.2,66.8,63.6,59.9,90,84,70,30.02,29.77,26,2,30,0.15
2013-2-8,72.7,65.6,59.2,64.9,61.1,55.8,90,85,72,30.05,29.87,12,1,12,0.01
2013-2-9,67.0,57.7,55.3,57.5,53.9,51.8,90,87,70,30.16,30.04,9,0,11,0.00
2013-2-10,81.4,69.4,62.0,64.5,61.0,56.5,86,75,53,30.20,30.10,3,1,18,0.00
2013-2-11,77.8,69.9,64.8,67.6,64.2,60.8,89,82,70,30.16,30.05,3,0,19,0.00
2013-2-12,77.1,70.5,66.9,70.8,66.3,63.6,89,87,81,30.06,29.92,3,0,18,0.01
2013-2-13,74.6,68.6,59.2,69.4,64.1,55.0,87,86,84,29.96,29.82,2,0,23,0.33
2013-2-14,62.8,60.6,58.8,58.2,56.1,54.3,86,85,84,30.02,29.90,0,0,10,0.37
2013-2-15,67.6,59.7,55.7,57.0,53.0,51.0,85,79,63,30.06,29.94,7,0,11,0.01
2013-2-16,67.1,57.7,49.9,54.2,47.9,37.2,86,71,51,30.11,29.92,22,3,24,0.00
2013-2-17,54.1,47.0,39.3,39.1,30.2,20.3,79,53,40,30.32,30.11,21,2,21,0.00
2013-2-18,69.7,52.9,38.6,50.8,40.4,28.4,84,65,34,30.33,30.17,14,0,15,0.00
2013-2-19,74.0,63.9,54.4,62.9,56.6,49.0,85,77,62,30.19,30.05,16,1,16,0.00
2013-2-20,76.2,65.1,59.5,66.1,59.1,54.3,85,81,70,30.09,29.99,9,0,10,0.01
2013-2-21,79.8,68.1,59.3,68.4,61.5,54.2,85,80,67,30.07,29.96,12,0,12,0.00
2013-2-22,80.3,70.8,63.7,71.2,64.9,58.8,84,82,72,30.03,29.96,16,1,16,0.00
2013-2-23,74.2,70.4,67.4,68.0,64.1,60.7,82,81,79,29.97,29.87,12,0,14,0.02
2013-2-24,74.4,69.5,67.3,67.4,62.2,60.2,79,78,76,29.94,29.84,11,0,11,0.00
2013-2-25,79.3,72.6,67.4,71.5,65.0,59.6,79,77,75,29.87,29.74,15,1,16,0.00
2013-2-26,73.7,70.6,66.7,66.8,63.7,59.7,81,79,77,29.86,29.66,21,1,23,0.38
2013-2-27,69.8,64.7,59.8,61.0,57.2,53.3,82,77,65,29.96,29.84,12,0,13,0.00
2013-2-28,71.3,64.0,59.1,58.1,54.6,48.9,83,72,60,29.98,29.89,10,0,11,0.00